Weather History for Hays, KS

Change the Weather History Date:

Thursday, December 5, 2013

  Actual Average Record
Temperature  
Mean Temperature 14 °F -  
Max Temperature 17 °F 44 °F 66 °F (2006)
Min Temperature 10 °F 21 °F 8 °F (1997)
Degree Days  
Heating Degree Days 52    
Moisture  
Dew Point -1 °F    
Average Humidity 51    
Maximum Humidity 63    
Minimum Humidity 41    
Precipitation  
Precipitation 0.00 in - - ()
Sea Level Pressure  
Sea Level Pressure 30.26 in    
Wind  
Wind Speed 15 mph (North)    
Max Wind Speed 22 mph    
Max Gust Speed 28 mph    
Visibility 10 miles    
Events      
Averages and records for this station are not official NWS values.
T = Trace of Precipitation, MM = Missing Value Source: NWS Daily Summary

Daily Weather History Graph

Daily Weather History Graph

Search for Another Location

Airport:

Trip Planner

Search our weather history database for the weather conditions in past years. The results will help you decide how hot, cold, wet, or windy it might be!

Date:

Astronomy

Dec. 05, 2013 Rise Set
Actual Time 7:40 AM CST 5:15 PM CST
Civil Twilight 7:10 AM CST 5:44 PM CST
Nautical Twilight 6:37 AM CST 6:17 PM CST
Astronomical Twilight 6:05 AM CST 6:50 PM CST
Moon 10:02 AM CST (12/5) 8:36 PM CST (12/5)
Length of Visible Light 10h 33m
Length of Day
9h 34m
Waxing Crescent, 11% of the Moon is Illuminated
Dec 5
Waxing Crescent
Dec 9
First Quarter
Dec 17
Full
Dec 25
Last Quarter
Jan 1
New

Hourly Weather History & Observations

Time (CST) Temp. Windchill Dew Point Humidity Pressure Visibility Wind Dir Wind Speed Gust Speed Precip Events Conditions
12:15 AM 17.6 °F 0.9 °F 6.8 °F 63% 30.16 in 10.0 mi NNW 20.7 mph - N/A   Overcast
12:35 AM 17.6 °F 0.5 °F 3.2 °F 53% 30.15 in 10.0 mi NNW 21.9 mph 27.6 mph N/A   Overcast
12:55 AM 17.6 °F 2.2 °F 3.2 °F 53% 30.17 in 10.0 mi NNW 17.3 mph 23.0 mph N/A   Mostly Cloudy
1:15 AM 17.6 °F 3.7 °F 3.2 °F 53% 30.18 in 10.0 mi NNW 13.8 mph 19.6 mph N/A   Mostly Cloudy
1:35 AM 17.6 °F 5.0 °F 3.2 °F 53% 30.17 in 10.0 mi NNW 11.5 mph - N/A   Partly Cloudy
1:55 AM 17.6 °F 1.7 °F 3.2 °F 53% 30.17 in 10.0 mi NNW 18.4 mph - N/A   Partly Cloudy
2:15 AM 17.6 °F 2.7 °F 3.2 °F 53% 30.19 in 10.0 mi NNW 16.1 mph 20.7 mph N/A   Partly Cloudy
2:35 AM 15.8 °F 2.7 °F 3.2 °F 58% 30.21 in 10.0 mi NNW 11.5 mph - N/A   Mostly Cloudy
2:55 AM 15.8 °F 0.9 °F 1.4 °F 53% 30.21 in 10.0 mi NNW 15.0 mph 20.7 mph N/A   Scattered Clouds
3:15 AM 14.0 °F -2.5 °F 1.4 °F 57% 30.20 in 10.0 mi NNW 17.3 mph - N/A   Clear
3:35 AM 14.0 °F -1.4 °F 1.4 °F 57% 30.21 in 10.0 mi NNW 15.0 mph - N/A   Clear
3:55 AM 12.2 °F -3.1 °F 1.4 °F 62% 30.21 in 10.0 mi NNW 13.8 mph 20.7 mph N/A   Clear
4:15 AM 12.2 °F -1.8 °F -0.4 °F 57% 30.21 in 10.0 mi NNW 11.5 mph - N/A   Clear
4:35 AM 12.2 °F -3.1 °F -0.4 °F 57% 30.20 in 10.0 mi NNW 13.8 mph - N/A   Clear
4:55 AM 12.2 °F -3.1 °F -0.4 °F 57% 30.21 in 10.0 mi NNW 13.8 mph - N/A   Clear
5:15 AM 10.4 °F -4.8 °F -0.4 °F 62% 30.22 in 10.0 mi NNW 12.7 mph - N/A   Clear
5:35 AM 10.4 °F -5.4 °F -0.4 °F 62% 30.23 in 10.0 mi NNW 13.8 mph - N/A   Clear
5:55 AM 10.4 °F -4.1 °F -0.4 °F 62% 30.23 in 10.0 mi NNW 11.5 mph 17.3 mph N/A   Clear
6:15 AM 10.4 °F -4.8 °F -0.4 °F 62% 30.23 in 10.0 mi NNW 12.7 mph - N/A   Clear
6:35 AM 10.4 °F -5.4 °F -0.4 °F 62% 30.24 in 10.0 mi NNW 13.8 mph - N/A   Clear
6:55 AM 10.4 °F -4.1 °F -0.4 °F 62% 30.25 in 10.0 mi NNW 11.5 mph - N/A   Clear
7:15 AM 10.4 °F -4.8 °F -0.4 °F 62% 30.24 in 10.0 mi NNW 12.7 mph - N/A   Clear
7:35 AM 10.4 °F -6.0 °F -2.2 °F 57% 30.26 in 10.0 mi NNW 15.0 mph - N/A   Clear
7:55 AM 10.4 °F -6.6 °F -0.4 °F 62% 30.27 in 10.0 mi NNW 16.1 mph 19.6 mph N/A   Clear
8:15 AM 10.4 °F -5.4 °F -2.2 °F 57% 30.29 in 10.0 mi NNW 13.8 mph - N/A   Clear
8:35 AM 10.4 °F -6.6 °F -2.2 °F 57% 30.28 in 10.0 mi NNW 16.1 mph 21.9 mph N/A   Clear
8:55 AM 10.4 °F -7.2 °F -2.2 °F 57% 30.31 in 10.0 mi North 17.3 mph - N/A   Partly Cloudy
9:15 AM 10.4 °F -5.4 °F -2.2 °F 57% 30.32 in 10.0 mi North 13.8 mph - N/A   Partly Cloudy
9:35 AM 10.4 °F -5.4 °F -2.2 °F 57% 30.33 in 10.0 mi North 13.8 mph - N/A   Clear
9:55 AM 10.4 °F -4.8 °F -2.2 °F 57% 30.33 in 10.0 mi NNW 12.7 mph 17.3 mph N/A   Clear
10:15 AM 10.4 °F -5.4 °F -4.0 °F 52% 30.33 in 10.0 mi North 13.8 mph - N/A   Partly Cloudy
10:35 AM 12.2 °F -2.5 °F -2.2 °F 53% 30.33 in 10.0 mi North 12.7 mph - N/A   Scattered Clouds
10:55 AM 12.2 °F -3.7 °F -4.0 °F 48% 30.33 in 10.0 mi North 15.0 mph - N/A   Mostly Cloudy
11:15 AM 12.2 °F -3.1 °F -4.0 °F 48% 30.33 in 10.0 mi North 13.8 mph 18.4 mph N/A   Scattered Clouds
11:35 AM 12.2 °F -3.7 °F -4.0 °F 48% 30.31 in 10.0 mi North 15.0 mph - N/A   Scattered Clouds
11:55 AM 12.2 °F -3.1 °F -2.2 °F 53% 30.30 in 10.0 mi North 13.8 mph - N/A   Mostly Cloudy
12:15 PM 12.2 °F -3.1 °F -4.0 °F 48% 30.29 in 10.0 mi North 13.8 mph - N/A   Overcast
12:35 PM 12.2 °F -2.5 °F -2.2 °F 53% 30.26 in 10.0 mi North 12.7 mph - N/A   Overcast
12:55 PM 12.2 °F -3.7 °F -2.2 °F 53% 30.26 in 10.0 mi North 15.0 mph 19.6 mph N/A   Overcast
1:15 PM 12.2 °F -4.8 °F -2.2 °F 53% 30.25 in 10.0 mi North 17.3 mph - N/A   Overcast
1:35 PM 14.0 °F -2.0 °F -2.2 °F 49% 30.22 in 10.0 mi North 16.1 mph - N/A   Mostly Cloudy
1:55 PM 14.0 °F -1.4 °F -2.2 °F 49% 30.21 in 10.0 mi North 15.0 mph - N/A   Partly Cloudy
2:15 PM 14.0 °F -0.8 °F -2.2 °F 49% 30.22 in 10.0 mi NNW 13.8 mph - N/A   Mostly Cloudy
2:35 PM 15.8 °F 0.9 °F -2.2 °F 45% 30.23 in 10.0 mi North 15.0 mph - N/A   Overcast
2:55 PM 15.8 °F 3.4 °F -2.2 °F 45% 30.23 in 10.0 mi North 10.4 mph - N/A   Overcast
3:15 PM 15.8 °F 1.4 °F -2.2 °F 45% 30.24 in 10.0 mi North 13.8 mph - N/A   Overcast
3:35 PM 15.8 °F 2.1 °F -2.2 °F 45% 30.24 in 10.0 mi North 12.7 mph - N/A   Overcast
3:55 PM 15.8 °F 2.7 °F -2.2 °F 45% 30.24 in 10.0 mi North 11.5 mph - N/A   Overcast
4:15 PM 15.8 °F 3.4 °F -2.2 °F 45% 30.26 in 10.0 mi North 10.4 mph - N/A   Overcast
4:35 PM 15.8 °F 5.1 °F -2.2 °F 45% 30.27 in 10.0 mi NNE 8.1 mph - N/A   Overcast
4:55 PM 15.8 °F 3.4 °F -2.2 °F 45% 30.26 in 10.0 mi North 10.4 mph - N/A   Overcast
5:15 PM 15.8 °F 4.2 °F -4.0 °F 41% 30.25 in 10.0 mi NNE 9.2 mph - N/A   Overcast
5:35 PM 15.8 °F 3.4 °F -2.2 °F 45% 30.26 in 10.0 mi NNE 10.4 mph - N/A   Overcast
5:55 PM 15.8 °F 3.4 °F -2.2 °F 45% 30.26 in 10.0 mi North 10.4 mph - N/A   Overcast
6:15 PM 15.8 °F 2.7 °F -2.2 °F 45% 30.26 in 10.0 mi North 11.5 mph - N/A   Overcast
6:35 PM 15.8 °F 2.7 °F -2.2 °F 45% 30.25 in 10.0 mi NNE 11.5 mph - N/A   Overcast
6:55 PM 15.8 °F 2.1 °F -2.2 °F 45% 30.25 in 10.0 mi NNE 12.7 mph - N/A   Overcast
7:15 PM 15.8 °F 2.1 °F -2.2 °F 45% 30.26 in 10.0 mi NNE 12.7 mph - N/A   Overcast
7:35 PM 15.8 °F 4.2 °F -2.2 °F 45% 30.28 in 10.0 mi North 9.2 mph - N/A   Overcast
7:55 PM 15.8 °F 4.2 °F -2.2 °F 45% 30.28 in 10.0 mi NNE 9.2 mph - N/A   Overcast
8:15 PM 15.8 °F 5.1 °F -4.0 °F 41% 30.30 in 10.0 mi NNE 8.1 mph - N/A   Overcast
8:35 PM 15.8 °F 5.1 °F -4.0 °F 41% 30.31 in 10.0 mi NNE 8.1 mph - N/A   Overcast
8:55 PM 15.8 °F 6.1 °F -4.0 °F 41% 30.31 in 10.0 mi NE 6.9 mph - N/A   Overcast
9:15 PM 15.8 °F 5.1 °F -2.2 °F 45% 30.32 in 10.0 mi NE 8.1 mph - N/A   Overcast
9:35 PM 15.8 °F 4.2 °F -2.2 °F 45% 30.33 in 10.0 mi NNE 9.2 mph - N/A   Overcast
9:55 PM 15.8 °F 5.1 °F -2.2 °F 45% 30.33 in 10.0 mi NE 8.1 mph - N/A   Overcast
10:15 PM 15.8 °F 4.2 °F -2.2 °F 45% 30.33 in 10.0 mi NE 9.2 mph - N/A   Overcast
10:35 PM 15.8 °F 2.7 °F -2.2 °F 45% 30.34 in 10.0 mi NNE 11.5 mph - N/A   Overcast
10:55 PM 15.8 °F 2.7 °F -4.0 °F 41% 30.35 in 10.0 mi NE 11.5 mph - N/A   Overcast
11:15 PM 15.8 °F 2.1 °F -2.2 °F 45% 30.34 in 10.0 mi NE 12.7 mph - N/A   Overcast
11:35 PM 15.8 °F 3.4 °F -4.0 °F 41% 30.35 in 10.0 mi NE 10.4 mph - N/A   Overcast
11:55 PM 15.8 °F 2.1 °F -4.0 °F 41% 30.35 in 10.0 mi NE 12.7 mph - N/A   Overcast